Simultaneous Nadir Overpasses (SNOs) Predictions

Prediction of SNOs between NOAA-21 and PACE Satellite Orbit:

Table of predicted SNOs for the next 14.0 days since TLE Epoch: 12/13/2024
Index Date (NOAA-21) Time (NOAA-21) Lat,Lon (NOAA-21) SZA (NOAA-21 ) Date (PACE) Time (PACE) Lat,Lon (PACE) SZA (PACE ) Distance(km) Time Diff (sec)
1 12/14/2024 18:22:01 80.09,-134.77 105.30 12/14/2024 18:22:08 80.10,-134.91 105.31 2.79 7
2 12/16/2024 22:48:24 80.08, 158.70 105.40 12/16/2024 22:48:18 80.08, 158.73 105.40 0.78 6
3 12/19/2024 02:25:15 -81.32,-100.97 70.64 12/19/2024 02:26:28 -81.78,-100.33 70.53 52.24 73
4 12/19/2024 03:14:46 80.05, 92.44 105.43 12/19/2024 03:14:27 80.05, 92.45 105.43 0.54 19
5 12/21/2024 06:50:29 -80.18,-142.90 74.28 12/21/2024 06:51:31 -80.18,-142.91 74.31 0.37 62
6 12/21/2024 07:41:09 80.05, 25.83 105.48 12/21/2024 07:40:36 80.04, 25.97 105.47 2.84 33
7 12/23/2024 11:16:51 -80.16, 150.76 74.31 12/23/2024 11:17:39 -80.16, 150.70 74.32 1.17 48
8 12/23/2024 12:07:31 80.03, -40.52 105.44 12/23/2024 12:06:44 80.03, -40.44 105.45 1.45 47
9 12/25/2024 15:43:13 -80.14, 84.37 74.37 12/25/2024 15:43:46 -80.14, 84.38 74.39 0.25 33



Historial Predications of SNOs between NOAA-21 and PACE
